Location: Marcé
(47.5801°N, 0.3280°W)
Time: 08:03:04
(UTC+01:00)

Vanguard 1 - Pass Details

Date: 07 December 2021
Orbit: 652 x 3830 km, 34.2° (Epoch: 24 January)

Event Time Altitude Azimuth Distance (km) Brightness Sun altitude
Rises 22:08:51 0° 204° (SSW) 6,330 14.2 -49.0°
Reaches altitude 10° 22:13:17 10° 195° (SSW) 5,725 13.8 -49.6°
Enters shadow 22:15:50 16° 188° (S) 5,450 13.6 -50.0°
Maximum altitude 22:28:52 32° 140° (SE) 5,050 - -52.0°
Drops below altitude 10° 22:47:25 10° 88° (E) 6,870 - -54.7°
Sets 22:53:22 0° 80° (E) 7,721 - -55.5°
